Date String (YYYY-MM-DD hh:mm:ss) UTC,Instrument flags,Ambient pressure (hPa),Sample flow (lpm),Bypass flow (lpm),Sample temperature (°C),Ambient temperature (°C),ASC tube jacket temperature (°C),LED temperature (°C),Box temperature (°C),Sample RH (%),Span deviation,Mass concentration (μg/m³),Mass concentration (μg/m³),Mass concentration (μg/m³)
DateTimeUTC,F1_M11,P_M11,Q1_M11,Q2_M11,T1_M11,T2_M11,T3_M11,T4_M11,T5_M11,U1_M11,ZSPAN_M11,X0_M11,X2_M11,X1_M11
2022-12-06 07:00:00,,0818.4,5.00,0.00,21.7,20.2,00.0,30.7,23.5,15.4,0000.0,0005.49,0001.51,0000.83
2022-12-06 07:01:00,,0818.3,5.00,0.00,21.7,20.2,00.0,30.7,23.5,15.4,0000.0,0006.15,0001.62,0000.84
2022-12-06 07:02:00,,0818.2,4.99,0.00,21.7,20.2,00.0,30.7,23.5,15.5,0000.0,0007.16,0001.71,0000.86
2022-12-06 07:03:00,,0818.2,5.00,0.00,21.7,20.3,00.0,30.7,23.5,15.6,0000.0,0007.23,0001.75,0000.86
2022-12-06 07:04:00,,0818.2,4.99,0.00,21.6,20.3,00.0,30.7,23.4,15.7,0000.0,0007.11,0001.78,0000.87
2022-12-06 07:05:00,,0818.2,4.99,0.00,21.6,20.3,00.0,30.7,23.4,15.8,0000.0,0007.16,0001.78,0000.88
2022-12-06 07:06:00,,0818.2,5.00,0.00,21.7,20.4,00.0,30.6,23.5,15.7,0000.0,0007.74,0001.78,0000.87
2022-12-06 07:07:00,,0818.3,5.01,0.00,21.7,21.1,00.0,30.6,23.7,15.7,0000.0,0007.93,0001.76,0000.86
2022-12-06 07:08:00,,0818.3,5.00,0.00,21.8,21.9,00.0,30.6,23.9,15.7,0000.0,0007.76,0001.70,0000.85
2022-12-06 07:09:00,,0818.3,4.99,0.00,21.9,21.8,00.0,30.6,24.0,15.7,0000.0,0007.54,0001.67,0000.84
2022-12-06 07:10:00,,0818.2,5.02,0.00,21.9,21.5,00.0,30.7,23.9,15.8,0000.0,0007.52,0001.65,0000.83
2022-12-06 07:11:00,,0818.2,5.00,0.00,21.9,21.3,00.0,30.7,23.9,15.8,0000.0,0007.53,0001.64,0000.83
2022-12-06 07:12:00,,0818.3,5.00,0.00,21.9,21.1,00.0,30.8,23.9,15.6,0000.0,0007.19,0001.51,0000.82
2022-12-06 07:13:00,,0818.4,5.00,0.00,21.9,21.0,00.0,30.8,23.9,15.5,0000.0,0006.30,0001.44,0000.81
2022-12-06 07:14:00,,0818.4,5.00,0.00,21.9,20.9,00.0,30.8,23.9,15.4,0000.0,0006.29,0001.41,0000.81
2022-12-06 07:15:00,,0818.4,5.00,0.00,21.9,20.8,00.0,30.8,23.8,15.4,0000.0,0006.05,0001.37,0000.81
2022-12-06 07:16:00,,0818.4,5.00,0.00,21.9,20.8,00.0,30.8,23.8,15.4,0000.0,0005.89,0001.34,0000.80
2022-12-06 07:17:00,,0818.4,4.99,0.00,21.9,20.8,00.0,30.8,23.8,15.0,0000.0,0004.72,0001.35,0000.80
2022-12-06 07:18:00,,0818.4,4.99,0.00,21.9,20.7,00.0,30.8,23.8,14.9,0000.0,0003.24,0001.32,0000.80
2022-12-06 07:19:00,,0818.4,5.00,0.00,21.9,20.7,00.0,30.8,23.7,15.0,0000.0,0003.36,0001.36,0000.80
2022-12-06 07:20:00,,0818.4,5.00,0.00,21.9,20.7,00.0,30.8,23.7,14.8,0000.0,0003.53,0001.40,0000.80
2022-12-06 07:21:00,,0818.4,5.00,0.00,21.9,20.6,00.0,30.8,23.7,14.7,0000.0,0003.46,0001.38,0000.82
2022-12-06 07:22:00,,0818.4,5.00,0.00,21.9,20.6,00.0,30.8,23.7,14.7,0000.0,0003.33,0001.35,0000.82
2022-12-06 07:23:00,,0818.4,5.00,0.00,21.9,20.6,00.0,30.8,23.7,14.2,0000.0,0003.40,0001.34,0000.84
2022-12-06 07:24:00,,0818.4,5.00,0.00,21.9,20.6,00.0,30.8,23.7,14.4,0000.0,0003.28,0001.37,0000.85
2022-12-06 07:25:00,,0818.4,5.00,0.00,21.9,20.5,00.0,30.8,23.7,14.6,0000.0,0002.88,0001.39,0000.85
2022-12-06 07:26:00,,0818.4,5.00,0.00,21.9,20.5,00.0,30.8,23.7,14.8,0000.0,0002.79,0001.39,0000.84
2022-12-06 07:27:00,,0818.4,5.00,0.00,21.9,20.5,00.0,30.8,23.7,14.8,0000.0,0002.99,0001.41,0000.84
2022-12-06 07:28:00,,0818.4,5.00,0.00,21.9,20.5,00.0,30.8,23.7,14.2,0000.0,0003.07,0001.40,0000.84
2022-12-06 07:29:00,,0818.5,5.00,0.00,21.9,20.5,00.0,30.8,23.7,14.2,0000.0,0003.21,0001.42,0000.83
2022-12-06 07:30:00,,0818.4,5.00,0.00,21.9,20.5,00.0,30.8,23.7,14.2,0000.0,0003.23,0001.39,0000.83
2022-12-06 07:31:00,,0818.4,5.00,0.00,21.9,20.5,00.0,30.8,23.7,14.1,0000.0,0003.01,0001.33,0000.81
2022-12-06 07:32:00,,0818.4,4.99,0.00,21.9,20.5,00.0,30.8,23.7,14.0,0000.0,0002.96,0001.32,0000.80
2022-12-06 07:33:00,,0818.5,5.00,0.00,21.8,20.5,00.0,30.8,23.7,14.1,0000.0,0003.15,0001.37,0000.80
2022-12-06 07:34:00,,0818.6,5.00,0.00,21.8,20.4,00.0,30.8,23.7,14.1,0000.0,0003.50,0001.37,0000.79
2022-12-06 07:35:00,,0818.7,5.00,0.00,21.8,20.4,00.0,30.8,23.7,14.2,0000.0,0003.53,0001.36,0000.78
2022-12-06 07:36:00,,0818.7,5.01,0.00,21.8,20.4,00.0,30.8,23.7,14.1,0000.0,0003.52,0001.33,0000.78
2022-12-06 07:37:00,,0818.7,5.00,0.00,21.8,20.4,00.0,30.8,23.6,13.9,0000.0,0003.75,0001.38,0000.77
2022-12-06 07:38:00,,0818.7,5.00,0.00,21.8,20.4,00.0,30.8,23.6,14.0,0000.0,0003.66,0001.39,0000.77
2022-12-06 07:39:00,,0818.6,5.00,0.00,21.8,20.4,00.0,30.8,23.6,14.0,0000.0,0003.63,0001.39,0000.78
2022-12-06 07:40:00,,0818.5,5.00,0.00,21.8,20.4,00.0,30.8,23.6,13.8,0000.0,0003.55,0001.39,0000.80
2022-12-06 07:41:00,,0818.5,5.00,0.00,21.8,20.4,00.0,30.8,23.6,13.6,0000.0,0003.57,0001.39,0000.81
2022-12-06 07:42:00,,0818.5,5.00,0.00,21.8,20.4,00.0,30.8,23.5,14.0,0000.0,0004.26,0001.45,0000.83
2022-12-06 07:43:00,,0818.5,5.00,0.00,21.8,20.4,00.0,30.8,23.6,14.2,0000.0,0004.43,0001.46,0000.83
2022-12-06 07:44:00,,0818.5,5.00,0.00,21.8,20.4,00.0,30.8,23.6,14.2,0000.0,0004.28,0001.42,0000.83
2022-12-06 07:45:00,,0818.4,5.00,0.00,21.8,20.4,00.0,30.8,23.6,14.2,0000.0,0003.79,0001.41,0000.83
2022-12-06 07:46:00,,0818.4,5.00,0.00,21.8,20.4,00.0,30.8,23.7,14.5,0000.0,0003.82,0001.43,0000.85
2022-12-06 07:47:00,,0818.4,5.00,0.00,21.8,20.4,00.0,30.8,23.7,14.7,0000.0,0003.77,0001.44,0000.86
2022-12-06 07:48:00,,0818.4,5.00,0.00,21.8,20.4,00.0,30.8,23.7,14.5,0000.0,0003.69,0001.44,0000.86
2022-12-06 07:49:00,,0818.4,5.01,0.00,21.8,20.4,00.0,30.8,23.7,13.5,0000.0,0003.69,0001.46,0000.87
2022-12-06 07:50:00,,0818.5,5.00,0.00,21.8,20.4,00.0,30.8,23.6,13.2,0000.0,0004.53,0001.46,0000.88
2022-12-06 07:51:00,,0818.5,5.00,0.00,21.8,20.4,00.0,30.8,23.6,13.4,0000.0,0004.86,0001.44,0000.88
2022-12-06 07:52:00,,0818.5,5.00,0.00,21.8,20.4,00.0,30.7,23.6,13.8,0000.0,0004.73,0001.43,0000.88
2022-12-06 07:53:00,,0818.6,4.99,0.00,21.8,20.4,00.0,30.7,23.6,13.6,0000.0,0004.30,0001.45,0000.88
2022-12-06 07:54:00,,0818.7,5.00,0.00,21.8,20.4,00.0,30.7,23.6,13.4,0000.0,0004.31,0001.52,0000.91
2022-12-06 07:55:00,,0818.7,5.00,0.00,21.8,20.4,00.0,30.7,23.6,13.3,0000.0,0004.42,0001.58,0000.93
2022-12-06 07:56:00,,0818.7,5.01,0.00,21.8,21.0,00.0,30.7,23.8,13.5,0000.0,0004.53,0001.63,0000.96
2022-12-06 07:57:00,,0818.6,5.00,0.00,21.9,21.8,00.0,30.7,24.0,14.0,0000.0,0004.83,0001.62,0000.97
2022-12-06 07:58:00,,0818.6,4.99,0.00,22.0,21.8,00.0,30.7,24.1,13.7,0000.0,0005.27,0001.69,0000.98
2022-12-06 07:59:00,,0818.6,5.00,0.00,22.0,21.6,00.0,30.8,24.0,13.7,0000.0,0005.19,0001.67,0001.00
